This is the latest recevied weather packets stored in our database for station/object W5HKR. If no packets are shown the sender has not sent any weather packets the latest 10 day(s).
| Time | Temp. | Humidity | Pressure | Rain* | Wind** | Luminosity | Snow |
|---|---|---|---|---|---|---|---|
| 1777868310 | 19.44° C | 68% | 988.9 hPa | 0 mm | - | - | - |
| 1777868010 | 19.44° C | 67% | 989.4 hPa | 0 mm | - | - | - |
| 1777867709 | 19.44° C | 67% | 989.2 hPa | 0 mm | - | - | - |
| 1777867440 | 18.33° C | 91% | 990.6 hPa | 0 mm | - | - | - |
| 1777867109 | 19.44° C | 67% | 989.3 hPa | 0 mm | - | - | - |
| 1777866811 | 18.33° C | 91% | 990.6 hPa | 0 mm | - | - | - |
| 1777866509 | 19.44° C | 66% | 989.5 hPa | 0 mm | - | - | - |
| 1777866359 | 18.33° C | 91% | 990.6 hPa | 0 mm | - | - | - |
| 1777866210 | 19.44° C | 66% | 989.4 hPa | 0 mm | - | - | - |
| 1777865910 | 19.44° C | 65% | 989.5 hPa | 0 mm | - | - | - |
| 1777865610 | 19.44° C | 66% | 989.4 hPa | 0 mm | - | - | - |
| 1777865282 | 18.33° C | 91% | 990.6 hPa | 0 mm | - | - | - |
| 1777865009 | 19.44° C | 64% | 989.2 hPa | 0 mm | - | - | - |
| 1777864710 | 19.44° C | 64% | 989.4 hPa | 0 mm | - | - | - |
| 1777864410 | 18.33° C | 91% | 990.6 hPa | 0 mm | - | - | - |
| 1777864201 | 20° C | 63% | 989.2 hPa | 0 mm | - | - | - |
| 1777864109 | 20° C | 62% | 989.2 hPa | 0 mm | - | - | - |
| 1777863810 | 20° C | 61% | 989.6 hPa | 0 mm | - | - | - |
| 1777863510 | 18.33° C | 91% | 990.6 hPa | 0 mm | - | - | - |
| 1777863209 | 20° C | 60% | 989.2 hPa | 0 mm | - | - | - |
| 1777863119 | 20° C | 60% | 989.2 hPa | 0 mm | - | - | - |
| 1777862910 | 18.33° C | 91% | 990.6 hPa | 0 mm | - | - | - |
| 1777862610 | 18.33° C | 91% | 990.6 hPa | 0 mm | - | - | - |
| 1777862310 | 20.56° C | 57% | 988.9 hPa | 0 mm | - | - | - |
| 1777862040 | 20.56° C | 56% | 988.5 hPa | 0 mm | - | - | - |
* Rain latest hour (hover to see other rain measurements)
** Current wind speed in m/s (hover to see current wind gust speed)